ERS 2 DEB

Satellite information

Favourite Embed

Satellite Type and Status

DEBRISIN ORBIT

Key statistics

Satellite ERS 2 DEB at a glance.

Uptime

10976

Days in orbit

Revolutions

≈ 14.5

Per day

Orbit

SSO

Sun Synchronous Orbit

Inclination

98.5

Latest

Satellite identification and parameters

Extended collection of information and parameters for ERS 2 DEB.

Object identification

Identified? True

Debris? True

Object name: ERS 2 DEB

International designator: 1995-021G

Object number (NORAD): 35393

Object ID (CCSDS): 35393

Country: EUROPEAN SPACE AGENCY (ESA)

Current information (Y/N): Y

RCS size: SMALL

Orbital parameters

Period: 99.082 minutes

Inclination: 98.4697 deg

SMA: 7092.884 km

Apoapsis: 719.188 km

Periapsis: 710.31 km

RAAN: 97.0012 deg

Eccentricy: 0.0006259

Argument of periapsis: 92.4642 deg

Mean anomaly: 59.2073 deg

Mean motion: 14.53344177 rev/day

Mean motion (dot): 0.00003561 rev/day2

B* drag term: 0.00086746 1/REarth

Two-line elements (TLE)

Creation date: May 9, 2025, 2:46 a.m.

Reference frame: TEME

Reference center: EARTH

Epoch: May 8, 2025, 9:23 a.m. UTC

TLE line 0: 0 ERS 2 DEB

TLE line 1: 1 35393U 95021G 25128.39161909 .00003561 00000-0 86746-3 0 9995

TLE line 2: 2 35393 98.4697 97.0012 0006259 92.4642 59.2073 14.53344177143357

Live tracking on map

Real-time ground track for satellite ERS 2 DEB.

In-orbit conjunctions

A list of the most updated potential collisions computed for object ERS 2 DEB.

Target Orbit TCA Probability of collision Miss distance Type
DELTA 1 DEB SSO 2025-03-12 22:03:58 0.0001793995 225.0 (m) DEBRIS
COSMOS 2251 DEB LEO 2024-07-25 17:04:18 0.000737915 48.0 (m) DEBRIS

Associated space launch

ERS (European Remote Sensing Satellite) are a family of multi-disciplinary Earth Observation Satellites.

ERS 2 DEB was lifted into orbit during the mission ‘Ariane 40 | ERS-2’, on board a Ariane 40 space rocket.

The launch took place on April 21, 1995, 1:44 a.m. from Ariane Launch Area 2.

For more information about the launch, click the button.

Launch to space Ariane 40 | ERS-2
Ariane 40 | ERS-2

Agency: N/A

Status: Launch Successful

Launch date: April 21, 1995, 1:44 a.m. UTC

Rocket: Ariane 40

Launch pad: Ariane Launch Area 2

Location: Guiana Space Centre, French Guiana

...

Latest news about this satellite

News about space launch
Impending European satellite reentry highlights debris mitigation challenges

The impending reentry of a defunct European satellite serves as a reminder of the hazards posed by existing objects even as agencies work to mitigate the growth of orbital debris.

News about space launch
A big European satellite will make an uncontrolled return to Earth Wednesday

What goes up must come down.


Newsletter sign-up

Weekly statistics, charts and insights to help you stay on top of the space industry.